{"data":{"norad_id":62008,"intl_designator":"2024-213A","name":"STARLINK-11433 [DTC]","alt_names":[],"object_type":"PAYLOAD","status":"ACTIVE","operator":null,"country":"US","launch_date":"2024-11-18","launch_site_code":"AFWTR","launch_vehicle":null,"mission":null,"orbit_class":"UNKNOWN","rcs_meters":null,"size_class":null,"mass_kg":null,"dimensions":null,"purposes":["comms"],"wikipedia_slug":null,"has_3d_model":false,"image_url":null,"decayed_at":null,"tle_current":{"epoch":"2026-09-21T21:27:21.573216Z","epoch_age_seconds":65155,"freshness":"FRESH","line1":"1 62008U 24213A   26264.89399969  .00163344  00000+0  13198-2 0  9994","line2":"2 62008  53.1587 153.8699 0004288 162.7418 197.3747 15.69828835105738","mean_motion":15.69828835,"eccentricity":0.0004288,"inclination_deg":53.1587,"raan_deg":153.8699,"arg_perigee_deg":162.7418,"mean_anomaly_deg":197.3747,"bstar":0.0013198,"rev_number":10573,"period_min":91.729745810154,"perigee_km":356.497661422,"apogee_km":362.27576175706,"semimajor_km":6737.5237115895,"source":"CELESTRAK","updated_at":"2026-09-22T09:00:49.482043Z"}}}